Location: Newark
(42.7133°N, 87.7910°W)
Time: 13:41:17
(UTC+00:00)

Tiros 1 - Pass Details

Date: 27 September 2019
Orbit: 630 x 664 km, 48.4° (Epoch: 16 October)

Event Time Altitude Azimuth Distance (km) Brightness Sun altitude
Rises 16:54:18 0° 250° (WSW) 2,981 10.6 44.3°
Reaches altitude 10° 16:56:39 10° 252° (WSW) 2,067 9.9 44.4°
Maximum altitude 17:01:25 72° 337° (NNW) 688 7.8 44.6°
Drops below altitude 10° 17:06:10 10° 62° (ENE) 2,053 9.7 44.8°
Sets 17:08:30 0° 65° (ENE) 2,959 10.4 44.9°
